Location: Munkebjergskolens Observatorium
(55.3864°N, 10.3987°E)
Time: 04:56:40
(UTC+02:00)

KKS-1 - Pass Details

Date: 08 April 2023
Orbit: 633 x 644 km, 98.2° (Epoch: 31 May)

Event Time Altitude Azimuth Distance (km) Brightness Sun altitude
Rises 00:59:35 0° 11° (N) 2,946 ? -27.4°
Reaches altitude 10° 01:01:53 10° 4° (N) 2,033 ? -27.5°
Maximum altitude 01:05:59 39° 296° (WNW) 968 ? -27.5°
Enters shadow 01:05:59 39° 296° (WNW) 968 ? -27.5°
